Find Starlink 32009

NORAD ID: 60104 Int'l Des: 2024-117 Owner: SPXS Country: US Constellation: starlink operational
LEOCIRCULAR

リアルタイム位置

3D地球を読み込み中...

Starlink 32009について

説明を読み込み中...

次回通過

Passes for default location (London). Set your location on the main map for personalized predictions.

高度履歴

Loading altitude history...

軌道要素

1 60104U 24117P 26127.15528913 -.00001403 00000-0 -35279-4 0 9998
2 60104 53.1596 125.8277 0001115 83.6453 276.4675 15.30191790105831
Epoch: May 7, 2026 • Age: 5 hours

現在のステータス

高度 481.2 km
速度 7.62 km/s
衛星直下点 -20.41°S, 118.89°E
打ち上げ日 Jun 23, 2024
運用期間 1.8 years
タイプ internet

技術仕様

分類 Payload
質量 730.00 kg
乾燥質量 700.00 kg
総質量 730.00 kg
長さ 0.30 m
直径 4.10 m
スパン 29.00 m
形状 Box + pan
製造者 SPXS
バスタイプ Starlink V2M
フェーズステータス In Orbit
所有者/国 SPXS/US

Most Searched